Location: Kumla
(59.1265°N, 15.1401°E)
Time: 09:07:42
(UTC+01:00)

Vanguard 1 Rocket - Pass Details

Date: 05 December 2023
Orbit: 653 x 4219 km, 34.3° (Epoch: 04 March)

Event Time Altitude Azimuth Distance (km) Brightness Sun altitude
Rises 08:18:56 0° 251° (WSW) 7,016 11.6 -2.2°
Reaches altitude 10° 08:26:26 10° 235° (SW) 5,209 11.2 -1.5°
Maximum altitude 08:33:52 17° 203° (SSW) 3,790 10.9 -0.9°
Drops below altitude 10° 08:39:18 10° 168° (SSE) 3,609 11.6 -0.4°
Sets 08:43:02 0° 147° (SSE) 4,101 13.2 -0.1°
